FW5422 Glyfada GR current weather conditions

sailwx.info

Wind from 329

Air temperature 13.3° C
Dewpoint 9.2° C

Last reported at 2019-Dec-06 21:00 UTC.
Time now 2019-Dec-06 21:27 UTC

Location: N 37°53' E 023°45'.
View on Google Maps.

See reports from other nearby stations

  
Tides and Currents Weather Stations Pressure Air Temp Water Temp Dewpoint Dewpoint Depression Visibility Wind Speed Wind Dir Waves Ship Positions
date/time (UTC)wind fromknots sea level pressurealtimeterstation pressurevisibilityair tempwater tempwave heightnotes
2019-Dec-06 21:00 329 13.3
2019-Dec-06 20:55 329 13.3
2019-Dec-06 20:50 329 13.3
2019-Dec-06 20:40 329 13.3
2019-Dec-06 20:30 329 13.3
2019-Dec-06 20:25 329 13.3
2019-Dec-06 20:20 329 13.3
2019-Dec-06 20:15 329 13.3
2019-Dec-06 20:10 329 0 gusting 2 13.3
2019-Dec-06 20:05 329 1 gusting 2 13.3
2019-Dec-06 19:55 329 1 gusting 2 13.3
2019-Dec-06 19:50 329 0 gusting 1 13.3
2019-Dec-06 19:40 329 13.3
2019-Dec-06 19:35 329 13.3
2019-Dec-06 19:25 329 0 gusting 2 13.3
2019-Dec-06 19:20 329 0 gusting 2 13.3
2019-Dec-06 19:10 329 0 gusting 2 13.3
2019-Dec-06 19:05 329 0 gusting 1 12.8
2019-Dec-06 19:00 329 13.3
2019-Dec-06 18:55 329 13.3
2019-Dec-06 18:50 329 0 gusting 1 13.3
2019-Dec-06 18:40 329 12.8
2019-Dec-06 18:35 329 0 gusting 1 12.8
2019-Dec-06 18:25 329 0 gusting 1 12.8
2019-Dec-06 18:20 329 12.8
2019-Dec-06 18:15 329 0 gusting 1 12.8
2019-Dec-06 18:10 329 0 gusting 1 12.8
2019-Dec-06 18:05 329 0 gusting 1 12.8
2019-Dec-06 17:55 329 0 gusting 1 12.8
2019-Dec-06 17:50 329 12.8
2019-Dec-06 17:40 329 0 gusting 2 12.8
2019-Dec-06 17:35 329 12.8
2019-Dec-06 17:25 329 0 gusting 3 12.8
2019-Dec-06 17:20 329 1 gusting 3 12.8
2019-Dec-06 17:10 329 0 gusting 2 12.8
2019-Dec-06 17:05 329 0 gusting 4 12.8
2019-Dec-06 17:00 329 1 gusting 4 12.8
2019-Dec-06 16:55 328 2 gusting 4 12.8
2019-Dec-06 16:50 327 1 gusting 2 12.8
2019-Dec-06 16:45 327 1 gusting 2 12.8
2019-Dec-06 16:40 327 0 gusting 3 12.8
2019-Dec-06 16:35 327 0 gusting 3 12.8
2019-Dec-06 16:30 327 1 gusting 3 12.8
2019-Dec-06 16:25 327 1 gusting 3 12.8
2019-Dec-06 16:20 327 0 gusting 2 12.8
2019-Dec-06 16:15 327 0 gusting 2 12.8
2019-Dec-06 16:10 327 12.8
2019-Dec-06 16:05 327 0 gusting 2 12.8
2019-Dec-06 16:00 327 0 gusting 2 12.8
2019-Dec-06 15:55 327 0 gusting 2 13.3
2019-Dec-06 15:50 327 0 gusting 2 13.3
2019-Dec-06 15:45 327 13.3
2019-Dec-06 15:40 327 0 gusting 1 13.3
2019-Dec-06 15:31 327 13.9
2019-Dec-06 15:26 327 13.9
2019-Dec-06 15:20 327 13.9
2019-Dec-06 15:17 327 13.9
2019-Dec-06 15:10 327 13.9
2019-Dec-06 15:05 327 13.9
2019-Dec-06 15:02 327 13.9
2019-Dec-06 14:55 327 13.9
2019-Dec-06 14:51 327 0 gusting 4 13.9
2019-Dec-06 14:46 327 1 gusting 4 13.9
2019-Dec-06 14:40 327 0 gusting 4 14.4
2019-Dec-06 14:35 327 1 gusting 4 14.4
2019-Dec-06 14:31 326 1 gusting 3 14.4
2019-Dec-06 14:25 327 0 gusting 3 14.4
2019-Dec-06 14:20 325 0 gusting 3 14.4
2019-Dec-06 14:17 325 1 gusting 4 14.4
2019-Dec-06 14:11 327 2 gusting 4 14.4
2019-Dec-06 14:05 328 1 gusting 5 14.4
2019-Dec-06 14:02 319 1 gusting 6 14.4
2019-Dec-06 13:55 326 1 gusting 6 14.4
2019-Dec-06 13:50 313 2 gusting 6 14.4
2019-Dec-06 13:47 326 3 gusting 6 14.4
2019-Dec-06 13:41 313 1 gusting 9 15.0
2019-Dec-06 13:35 330 5 gusting 9 15.0
2019-Dec-06 13:31 287 3 gusting 6 15.0
2019-Dec-06 13:25 336 2 gusting 7 15.0
2019-Dec-06 13:20 336 4 gusting 7 15.0
2019-Dec-06 13:16 304 2 gusting 6 15.0
2019-Dec-06 13:10 314 2 gusting 6 15.0
2019-Dec-06 13:05 334 1 gusting 5 15.0
2019-Dec-06 13:01 335 1 gusting 5 14.4
2019-Dec-06 12:55 327 1 gusting 7 14.4
2019-Dec-06 12:51 304 2 gusting 7 14.4
2019-Dec-06 12:47 306 4 gusting 6 14.4
2019-Dec-06 12:40 331 3 gusting 6 14.4
2019-Dec-06 12:36 311 3 gusting 6 15.0
2019-Dec-06 12:31 331 3 gusting 8 15.0
2019-Dec-06 12:25 298 4 gusting 8 15.0
2019-Dec-06 12:20 310 2 gusting 7 15.0
2019-Dec-06 12:16 315 3 gusting 7 15.0
2019-Dec-06 12:10 290 4 gusting 7 15.0
2019-Dec-06 12:05 329 3 gusting 9 15.0
2019-Dec-06 12:02 304 4 gusting 9 15.0
2019-Dec-06 11:55 331 2 gusting 8 14.4
2019-Dec-06 11:50 296 5 gusting 8 15.0
2019-Dec-06 11:46 336 2 gusting 8 15.0
2019-Dec-06 11:40 292 4 gusting 8 15.0
2019-Dec-06 11:35 333 2 gusting 7 14.4
2019-Dec-06 11:32 317 5 gusting 9 14.4
2019-Dec-06 11:25 301 5 gusting 10 14.4
2019-Dec-06 11:20 304 5 gusting 10 14.4
2019-Dec-06 11:16 346 4 gusting 9 14.4
2019-Dec-06 11:10 313 3 gusting 7 14.4
2019-Dec-06 11:05 339 3 gusting 8 14.4
2019-Dec-06 11:01 304 2 gusting 8 14.4
2019-Dec-06 10:55 334 2 gusting 7 14.4
2019-Dec-06 10:50 329 4 gusting 7 14.4
2019-Dec-06 10:46 019 3 gusting 7 14.4
2019-Dec-06 10:40 348 2 gusting 7 14.4
2019-Dec-06 10:35 348 2 gusting 9 14.4
2019-Dec-06 10:31 306 3 gusting 9 13.9
2019-Dec-06 10:25 310 6 gusting 9 13.9
2019-Dec-06 10:20 300 6 gusting 9 13.9
2019-Dec-06 10:16 328 4 gusting 9 13.9
2019-Dec-06 10:10 313 5 gusting 9 13.9
2019-Dec-06 10:05 334 2 gusting 10 13.9
2019-Dec-06 10:01 314 5 gusting 10 13.9
2019-Dec-06 09:55 340 3 gusting 8 13.9
2019-Dec-06 09:50 331 3 gusting 9 13.9
2019-Dec-06 09:46 303 5 gusting 9 13.9
2019-Dec-06 09:40 335 4 gusting 9 13.9
2019-Dec-06 09:35 326 4 gusting 7 13.9
2019-Dec-06 09:31 330 3 gusting 7 13.9
2019-Dec-06 09:25 329 2 gusting 8 13.3
2019-Dec-06 09:20 338 5 gusting 8 13.3
2019-Dec-06 09:16 355 1 gusting 6 13.3
2019-Dec-06 09:10 005 3 gusting 8 13.3
2019-Dec-06 09:05 346 1 gusting 8 13.3
2019-Dec-06 09:00 360 3 gusting 10 13.3
2019-Dec-06 08:55 342 4 gusting 10 13.3
2019-Dec-06 08:50 335 2 gusting 7 12.8
2019-Dec-06 08:40 342 3 gusting 7 12.8
2019-Dec-06 08:35 005 3 gusting 6 12.8
2019-Dec-06 08:30 360 1 gusting 7 12.8
2019-Dec-06 08:25 355 2 gusting 8 12.8
2019-Dec-06 08:20 339 4 gusting 9 12.8
2019-Dec-06 08:15 355 3 gusting 9 12.8
2019-Dec-06 08:10 347 4 gusting 8 12.8
2019-Dec-06 08:05 355 3 gusting 8 12.8
2019-Dec-06 08:00 339 3 gusting 8 12.8
2019-Dec-06 07:55 355 4 gusting 7 12.8
2019-Dec-06 07:50 013 2 gusting 6 12.8
2019-Dec-06 07:45 043 2 gusting 7 12.2
2019-Dec-06 07:40 025 2 gusting 9 12.2
2019-Dec-06 07:35 347 3 gusting 11 12.2
2019-Dec-06 07:30 005 6 gusting 11 12.2
2019-Dec-06 07:20 327 4 gusting 9 11.7
2019-Dec-06 07:16 355 4 gusting 9 11.7
2019-Dec-06 07:11 360 3 gusting 6 11.7
2019-Dec-06 07:05 016 3 gusting 6 11.7
2019-Dec-06 07:01 009 2 gusting 5 11.7
2019-Dec-06 06:55 011 1 gusting 5 11.7
2019-Dec-06 06:50 011 2 gusting 5 11.7
2019-Dec-06 06:46 022 2 gusting 3 11.1
2019-Dec-06 06:40 027 1 gusting 3 11.1
2019-Dec-06 06:35 027 1 gusting 3 11.1
2019-Dec-06 06:31 042 1 gusting 3 11.1
2019-Dec-06 06:25 042 1 gusting 5 11.1
2019-Dec-06 06:20 042 1 gusting 5 10.6
2019-Dec-06 06:16 042 1 gusting 4 10.6
2019-Dec-06 06:10 042 1 gusting 5 10.6
2019-Dec-06 06:05 042 2 gusting 5 10.6
2019-Dec-06 06:01 026 1 gusting 3 10.0
2019-Dec-06 05:55 026 0 gusting 3 10.0
2019-Dec-06 05:50 026 1 gusting 3 10.0
2019-Dec-06 05:46 026 1 gusting 3 10.0
2019-Dec-06 05:40 026 1 gusting 2 10.0
2019-Dec-06 05:35 026 0 gusting 1 10.0
2019-Dec-06 05:31 026 10.0
2019-Dec-06 05:25 026 10.0
2019-Dec-06 05:20 026 0 gusting 2 10.0
2019-Dec-06 05:16 026 0 gusting 2 10.0
2019-Dec-06 05:10 026 0 gusting 3 10.0
2019-Dec-06 05:05 026 0 gusting 4 10.0
2019-Dec-06 05:01 026 1 gusting 4 10.0
2019-Dec-06 04:55 026 0 gusting 4 10.0
2019-Dec-06 04:50 026 1 gusting 4 10.0
2019-Dec-06 04:46 026 0 gusting 2 10.0
2019-Dec-06 04:40 026 0 gusting 2 10.0
2019-Dec-06 04:35 026 0 gusting 2 10.0
2019-Dec-06 04:31 026 1 gusting 3 10.0
2019-Dec-06 04:25 026 0 gusting 3 10.6
2019-Dec-06 04:20 026 1 gusting 8 10.6
2019-Dec-06 04:16 026 4 gusting 8 10.0
2019-Dec-06 04:10 028 2 gusting 6 10.0
2019-Dec-06 04:05 009 2 gusting 4 10.0
2019-Dec-06 04:01 005 0 gusting 2 10.0
2019-Dec-06 03:55 005 0 gusting 3 10.0
2019-Dec-06 03:50 005 0 gusting 5 10.0
2019-Dec-06 03:45 009 1 gusting 5 10.0
2019-Dec-06 03:40 005 1 gusting 3 10.0
2019-Dec-06 03:35 005 1 gusting 3 10.0
2019-Dec-06 03:30 005 0 gusting 4 10.0
2019-Dec-06 03:25 005 0 gusting 4 10.0
2019-Dec-06 03:20 005 1 gusting 4 10.0
2019-Dec-06 03:15 005 1 gusting 4 9.4
2019-Dec-06 03:10 005 1 gusting 4 9.4
2019-Dec-06 03:05 005 1 gusting 3 9.4
2019-Dec-06 03:01 005 0 gusting 2 9.4
2019-Dec-06 02:55 005 9.4
2019-Dec-06 02:50 005 0 gusting 2 9.4
2019-Dec-06 02:45 005 1 gusting 3 9.4
2019-Dec-06 02:40 005 0 gusting 3 9.4
2019-Dec-06 02:35 005 1 gusting 3 9.4
2019-Dec-06 02:25 005 0 gusting 3 9.4
2019-Dec-06 02:20 005 0 gusting 3 9.4
2019-Dec-06 02:10 005 1 gusting 5 10.0
2019-Dec-06 02:05 005 2 gusting 5 9.4
2019-Dec-06 02:00 005 2 gusting 6 9.4
2019-Dec-06 01:55 005 2 gusting 5 9.4
2019-Dec-06 01:50 005 1 gusting 4 9.4
2019-Dec-06 01:40 005 0 gusting 3 9.4
2019-Dec-06 01:35 005 1 gusting 2 9.4
2019-Dec-06 01:25 005 1 gusting 3 10.0
2019-Dec-06 01:20 005 1 gusting 4 10.0
2019-Dec-06 01:10 005 2 gusting 5 10.0
2019-Dec-06 01:05 005 1 gusting 5 10.0
2019-Dec-06 01:00 005 1 gusting 5 10.0
2019-Dec-06 00:55 005 1 gusting 4 10.0
2019-Dec-06 00:50 005 1 gusting 4 10.0
2019-Dec-06 00:45 005 1 gusting 4 10.0
2019-Dec-06 00:40 005 2 gusting 4 10.0
2019-Dec-06 00:35 005 1 gusting 3 10.0
2019-Dec-06 00:30 005 1 gusting 5 10.0
2019-Dec-06 00:25 005 2 gusting 5 10.0
2019-Dec-06 00:20 005 2 gusting 5 10.0
2019-Dec-06 00:15 005 1 gusting 4 10.0
2019-Dec-06 00:10 005 1 gusting 4 10.0
2019-Dec-06 00:05 005 1 gusting 4 10.0
2019-Dec-06 00:00 005 1 gusting 4 10.0
2019-Dec-05 23:55 005 1 gusting 3 10.0
2019-Dec-05 23:50 005 1 gusting 3 10.0
2019-Dec-05 23:45 005 0 gusting 2 10.0
2019-Dec-05 23:40 005 0 gusting 1 10.0
2019-Dec-05 23:31 005 0 gusting 2 10.0
2019-Dec-05 23:25 005 0 gusting 2 10.6
2019-Dec-05 23:16 005 0 gusting 2 10.6
2019-Dec-05 23:11 005 0 gusting 5 10.6
2019-Dec-05 23:05 005 1 gusting 5 11.1
2019-Dec-05 23:01 022 2 gusting 6 11.1
2019-Dec-05 22:55 019 1 gusting 7 11.1
2019-Dec-05 22:50 040 2 gusting 7 11.1
2019-Dec-05 22:46 005 2 gusting 7 11.1
2019-Dec-05 22:40 046 1 gusting 8 11.1
2019-Dec-05 22:35 031 1 gusting 6 10.6
2019-Dec-05 22:32 063 10.6
2019-Dec-05 22:25 062 0 gusting 4 10.6
2019-Dec-05 22:20 062 0 gusting 5 10.6
2019-Dec-05 22:16 015 0 gusting 1 10.6
2019-Dec-05 22:10 015 0 gusting 1 10.6
2019-Dec-05 22:05 014 0 gusting 2 10.6
2019-Dec-05 22:02 015 11.1
2019-Dec-05 21:55 014 1 gusting 3 11.1
2019-Dec-05 21:50 015 1 gusting 3 11.1
2019-Dec-05 21:47 014 1 gusting 3 11.1
2019-Dec-05 21:40 015 1 gusting 3 11.1
2019-Dec-05 21:35 015 0 gusting 4 11.1
2019-Dec-05 21:31 015 1 gusting 4 11.1
2019-Dec-05 21:25 015 0 gusting 5 11.1
2019-Dec-05 21:20 015 0 gusting 5 11.7
2019-Dec-05 21:16 350 1 gusting 5 11.7
2019-Dec-05 21:10 360 1 gusting 6 11.7
2019-Dec-05 21:05 021 1 gusting 8 11.7
2019-Dec-05 21:01 054 2 gusting 7 11.7
2019-Dec-05 20:55 028 3 gusting 7 11.7
2019-Dec-05 20:50 015 1 gusting 6 11.7
2019-Dec-05 20:46 022 2 gusting 8 11.7
2019-Dec-05 20:40 046 4 gusting 9 11.7
2019-Dec-05 20:35 010 3 gusting 9 11.7
2019-Dec-05 20:31 005 2 gusting 5 11.7
2019-Dec-05 20:25 005 2 gusting 6 11.7
2019-Dec-05 20:20 005 2 gusting 8 11.7
2019-Dec-05 20:16 025 1 gusting 9 11.7
2019-Dec-05 20:10 013 1 gusting 8 11.7
2019-Dec-05 20:05 015 5 gusting 8 11.7
2019-Dec-05 20:01 005 3 gusting 6 11.7
2019-Dec-05 19:55 022 1 gusting 9 11.7
2019-Dec-05 19:50 022 2 gusting 9 11.7
2019-Dec-05 19:46 039 1 gusting 5 11.7
2019-Dec-05 19:40 009 2 gusting 7 11.7
2019-Dec-05 19:35 016 2 gusting 7 11.7
2019-Dec-05 19:31 355 0 gusting 6 11.7
2019-Dec-05 19:25 013 2 gusting 5 11.7
2019-Dec-05 19:20 026 2 gusting 5 11.7
2019-Dec-05 19:16 005 2 gusting 7 11.7
2019-Dec-05 19:10 016 3 gusting 7 11.7
2019-Dec-05 19:05 347 0 gusting 6 11.7
2019-Dec-05 19:01 347 1 gusting 6 11.7
2019-Dec-05 18:55 360 2 gusting 4 11.7
2019-Dec-05 18:50 360 1 gusting 5 11.7
2019-Dec-05 18:47 360 3 gusting 5 12.2
2019-Dec-05 18:40 009 2 gusting 6 12.2
2019-Dec-05 18:35 009 2 gusting 6 12.2
2019-Dec-05 18:31 010 2 gusting 6 12.2
2019-Dec-05 18:25 011 1 gusting 4 11.7
2019-Dec-05 18:20 009 1 gusting 8 11.7
2019-Dec-05 18:16 009 1 gusting 8 11.7
2019-Dec-05 18:10 017 3 gusting 7 11.7
2019-Dec-05 18:05 311 1 gusting 5 11.7
2019-Dec-05 18:01 005 0 gusting 5 11.7
2019-Dec-05 17:55 005 1 gusting 4 11.7
2019-Dec-05 17:50 005 0 gusting 2 11.7
2019-Dec-05 17:46 005 11.7
2019-Dec-05 17:40 005 0 gusting 1 11.7
2019-Dec-05 17:35 005 11.7
2019-Dec-05 17:31 005 0 gusting 4 11.7
2019-Dec-05 17:25 005 1 gusting 4 11.7
2019-Dec-05 17:20 005 1 gusting 6 11.7
2019-Dec-05 17:16 005 2 gusting 6 11.7
2019-Dec-05 17:10 005 0 gusting 5 11.7
2019-Dec-05 17:05 005 2 gusting 5 11.7
2019-Dec-05 17:00 005 2 gusting 7 11.7
2019-Dec-05 16:55 044 3 gusting 7 11.7
2019-Dec-05 16:50 014 2 gusting 6 11.7
2019-Dec-05 16:35 011 0 gusting 5 11.7
2019-Dec-05 16:30 011 2 gusting 9 11.7
2019-Dec-05 16:25 034 3 gusting 9 11.7
2019-Dec-05 16:20 347 3 gusting 8 11.7
2019-Dec-05 16:15 027 3 gusting 7 11.7
2019-Dec-05 16:10 347 2 gusting 7 11.7
2019-Dec-05 16:05 024 3 gusting 5 11.7
2019-Dec-05 16:00 049 1 gusting 6 11.7
2019-Dec-05 15:55 045 2 gusting 6 11.7
2019-Dec-05 15:50 020 0 gusting 6 11.7
2019-Dec-05 15:45 020 3 gusting 7 11.7
2019-Dec-05 15:40 005 3 gusting 7 11.7
2019-Dec-05 15:35 027 2 gusting 8 11.7
2019-Dec-05 15:30 005 3 gusting 8 11.7
2019-Dec-05 15:25 025 2 gusting 10 11.7
2019-Dec-05 15:20 035 5 gusting 10 12.2
2019-Dec-05 15:16 018 1 gusting 6 12.2
2019-Dec-05 15:10 041 2 gusting 12 12.2
2019-Dec-05 15:05 036 4 gusting 12 12.2
2019-Dec-05 15:00 037 7 gusting 11 12.2
2019-Dec-05 14:55 051 4 gusting 12 12.2
2019-Dec-05 14:50 028 3 gusting 12 12.2
2019-Dec-05 14:45 057 6 gusting 12 12.2
2019-Dec-05 14:40 025 7 gusting 12 12.2
2019-Dec-05 14:35 042 3 gusting 10 12.2
2019-Dec-05 14:30 054 4 gusting 10 12.2
2019-Dec-05 14:25 013 4 gusting 9 12.2
2019-Dec-05 14:20 049 1 gusting 6 12.2
2019-Dec-05 14:15 344 2 gusting 6 12.2
2019-Dec-05 14:10 020 2 gusting 8 12.2
2019-Dec-05 14:05 044 4 gusting 8 12.2
2019-Dec-05 14:01 041 3 gusting 7 12.2
2019-Dec-05 13:55 056 1 gusting 5 12.2
2019-Dec-05 13:50 056 2 gusting 8 12.2
2019-Dec-05 13:45 065 1 gusting 8 12.2
2019-Dec-05 13:40 044 2 gusting 6 12.2
2019-Dec-05 13:35 028 2 gusting 7 12.2
2019-Dec-05 13:30 026 1 gusting 7 12.2
2019-Dec-05 13:25 046 2 gusting 7 12.2
2019-Dec-05 13:20 036 2 gusting 7 12.2
2019-Dec-05 13:16 005 2 gusting 8 12.2
2019-Dec-05 13:10 016 2 gusting 8 12.2
2019-Dec-05 13:05 043 2 gusting 9 12.2
2019-Dec-05 13:00 044 6 gusting 12 12.8
2019-Dec-05 12:55 042 4 gusting 12 12.8
2019-Dec-05 12:50 051 5 gusting 12 12.8
2019-Dec-05 12:40 042 4 gusting 10 12.8
2019-Dec-05 12:35 055 4 gusting 10 12.8
2019-Dec-05 12:30 043 5 gusting 10 12.8
2019-Dec-05 12:25 045 3 gusting 10 12.8
2019-Dec-05 12:20 041 3 gusting 9 12.8
2019-Dec-05 12:10 360 0 gusting 7 13.3
2019-Dec-05 12:05 360 2 gusting 11 13.3
2019-Dec-05 11:55 054 2 gusting 6 13.3
2019-Dec-05 11:50 026 1 gusting 12 13.3
2019-Dec-05 11:40 041 5 gusting 10 13.3
2019-Dec-05 11:35 046 4 gusting 13 13.3
2019-Dec-05 11:30 042 6 gusting 13 13.3
2019-Dec-05 11:25 027 3 gusting 7 13.3
2019-Dec-05 11:20 010 3 gusting 8 13.3
2019-Dec-05 11:10 005 6 gusting 12 13.3
2019-Dec-05 11:05 341 6 gusting 12 13.3
2019-Dec-05 10:55 344 3 gusting 13 12.8
2019-Dec-05 10:45 329 3 gusting 12 12.8
2019-Dec-05 10:40 346 5 gusting 14 12.8
2019-Dec-05 10:35 329 6 gusting 14 12.8
2019-Dec-05 10:25 020 5 gusting 12 13.3
2019-Dec-05 10:20 355 3 gusting 9 13.3
2019-Dec-05 10:10 005 5 gusting 12 13.3
2019-Dec-05 10:05 346 3 gusting 13 13.3
2019-Dec-05 09:55 005 6 gusting 12 13.3
2019-Dec-05 09:50 044 6 gusting 12 13.3
2019-Dec-05 09:40 325 3 gusting 8 13.3
2019-Dec-05 09:35 045 2 gusting 8 13.3
2019-Dec-05 09:25 040 4 gusting 11 12.8
2019-Dec-05 09:20 019 6 gusting 11 12.8
2019-Dec-05 09:10 009 5 gusting 13 12.8
2019-Dec-05 09:05 340 6 gusting 13 12.8
2019-Dec-05 08:55 341 6 gusting 13 12.8
2019-Dec-05 08:50 341 4 gusting 13 12.8
2019-Dec-05 08:40 348 4 gusting 14 12.8
2019-Dec-05 08:35 355 6 gusting 11 12.2
2019-Dec-05 08:30 336 5 gusting 10 12.2
2019-Dec-05 08:25 341 2 gusting 8 12.2
2019-Dec-05 08:20 330 2 gusting 9 12.2
2019-Dec-05 08:15 326 4 gusting 11 12.2
2019-Dec-05 08:10 303 4 gusting 11 12.2
2019-Dec-05 08:05 325 4 gusting 9 12.2
2019-Dec-05 07:56 333 3 gusting 8 12.2
2019-Dec-05 07:50 336 3 gusting 8 12.2
2019-Dec-05 07:46 336 2 gusting 9 12.2
2019-Dec-05 07:36 348 3 gusting 6 11.7
2019-Dec-05 07:31 019 2 gusting 8 11.7
2019-Dec-05 07:26 338 2 gusting 8 11.7
2019-Dec-05 07:16 337 5 gusting 9 11.7
2019-Dec-05 07:10 334 3 gusting 7 11.7
2019-Dec-05 07:05 346 3 gusting 7 11.7
2019-Dec-05 07:02 341 2 gusting 6 11.7
2019-Dec-05 06:55 341 3 gusting 7 11.7
2019-Dec-05 06:50 360 2 gusting 6 11.7
2019-Dec-05 06:46 360 2 gusting 5 11.7
2019-Dec-05 06:40 018 2 gusting 5 11.7
2019-Dec-05 06:35 011 2 gusting 6 11.7
2019-Dec-05 06:31 046 1 gusting 6 11.1
2019-Dec-05 06:25 010 2 gusting 6 11.1
2019-Dec-05 06:20 009 2 gusting 5 11.1
2019-Dec-05 06:15 022 1 gusting 5 11.1
2019-Dec-05 06:10 016 2 gusting 5 10.6
2019-Dec-05 06:05 348 1 gusting 4 10.0
2019-Dec-05 06:01 348 1 gusting 4 10.0
2019-Dec-05 05:55 348 1 gusting 5 10.0
2019-Dec-05 05:50 348 1 gusting 5 10.0
2019-Dec-05 05:46 348 0 gusting 4 10.0
2019-Dec-05 05:40 348 2 gusting 5 10.0
2019-Dec-05 05:35 348 2 gusting 5 10.0
2019-Dec-05 05:31 348 2 gusting 5 10.0
2019-Dec-05 05:25 348 2 gusting 6 10.0
2019-Dec-05 05:20 348 3 gusting 6 10.0
2019-Dec-05 05:16 348 2 gusting 5 10.0
2019-Dec-05 05:10 348 3 gusting 5 10.0
2019-Dec-05 05:05 348 1 gusting 4 10.0
2019-Dec-05 04:55 348 2 gusting 5 10.0
2019-Dec-05 04:50 348 0 gusting 4 10.0
2019-Dec-05 04:46 348 2 gusting 4 10.0
2019-Dec-05 04:40 348 1 gusting 4 10.0
2019-Dec-05 04:35 348 1 gusting 4 10.0
2019-Dec-05 04:30 348 1 gusting 3 10.0
2019-Dec-05 04:25 348 0 gusting 3 10.0
2019-Dec-05 04:20 348 0 gusting 2 10.0
2019-Dec-05 04:15 348 0 gusting 2 10.0
2019-Dec-05 04:10 348 0 gusting 2 10.0
2019-Dec-05 04:05 348 0 gusting 2 10.0
2019-Dec-05 03:55 348 0 gusting 3 10.0
2019-Dec-05 03:45 348 0 gusting 2 10.0
2019-Dec-05 03:40 348 1 gusting 3 10.0
2019-Dec-05 03:35 348 1 gusting 4 10.0
2019-Dec-05 03:25 348 0 gusting 2 10.0
2019-Dec-05 03:20 348 0 gusting 2 10.0
2019-Dec-05 03:10 348 0 gusting 1 10.0
2019-Dec-05 03:05 348 10.0
2019-Dec-05 02:55 348 10.0
2019-Dec-05 02:50 348 0 gusting 2 10.6
2019-Dec-05 02:40 348 1 gusting 3 10.0
2019-Dec-05 02:35 348 0 gusting 4 10.6
2019-Dec-05 02:25 348 0 gusting 5 10.6
2019-Dec-05 02:20 348 1 gusting 5 10.6
2019-Dec-05 02:15 348 2 gusting 5 10.6
2019-Dec-05 02:10 348 2 gusting 5 10.6
2019-Dec-05 02:05 348 0 gusting 3 10.6
2019-Dec-05 01:55 348 0 gusting 3 10.6
2019-Dec-05 01:50 348 0 gusting 3 10.6
2019-Dec-05 01:45 348 1 gusting 4 10.6
2019-Dec-05 01:40 348 0 gusting 5 10.6
2019-Dec-05 01:35 348 3 gusting 5 10.6
2019-Dec-05 01:30 348 1 gusting 6 11.1
2019-Dec-05 01:25 348 2 gusting 10 11.1
2019-Dec-05 01:20 015 4 gusting 10 11.1
2019-Dec-05 01:15 355 3 gusting 9 11.1
2019-Dec-05 01:10 013 1 gusting 5 11.1
2019-Dec-05 01:05 013 1 gusting 5 11.1
2019-Dec-05 01:00 024 0 gusting 2 11.1
2019-Dec-05 00:51 024 0 gusting 4 11.1
2019-Dec-05 00:47 024 1 gusting 7 11.7
2019-Dec-05 00:41 010 2 gusting 9 11.7
2019-Dec-05 00:35 013 2 gusting 9 11.7
2019-Dec-05 00:32 049 2 gusting 11 11.7
2019-Dec-05 00:26 013 4 gusting 11 11.7
2019-Dec-05 00:20 044 1 gusting 8 11.7
2019-Dec-05 00:18 011 3 gusting 9 11.7
2019-Dec-05 00:10 052 2 gusting 11 11.7
2019-Dec-05 00:05 011 4 gusting 11 11.7
2019-Dec-05 00:01 026 4 gusting 8 11.7
2019-Dec-04 23:56 005 1 gusting 5 11.7
2019-Dec-04 23:47 019 3 gusting 8 11.7
2019-Dec-04 23:40 022 2 gusting 11 11.7
2019-Dec-04 23:35 005 3 gusting 11 11.7
2019-Dec-04 23:32 005 4 gusting 11 11.7
2019-Dec-04 23:25 360 2 gusting 7 11.7
2019-Dec-04 23:20 015 3 gusting 13 11.7
2019-Dec-04 23:16 057 4 gusting 13 11.7
2019-Dec-04 23:10 019 0 gusting 7 11.7
2019-Dec-04 23:05 019 2 gusting 7 11.7
2019-Dec-04 23:01 355 1 gusting 5 11.7
2019-Dec-04 22:55 355 1 gusting 5 11.7
2019-Dec-04 22:50 346 0 gusting 3 11.7
2019-Dec-04 22:47 346 1 gusting 4 11.7
2019-Dec-04 22:40 346 1 gusting 4 11.7
2019-Dec-04 22:35 013 1 gusting 6 11.7
2019-Dec-04 22:31 062 2 gusting 6 11.7
2019-Dec-04 22:25 014 1 gusting 6 11.7
2019-Dec-04 22:20 278 0 gusting 2 11.7
2019-Dec-04 22:16 278 11.7
2019-Dec-04 22:10 278 11.7
2019-Dec-04 22:05 278 2 gusting 3 11.7
2019-Dec-04 22:01 278 1 gusting 6 11.7
2019-Dec-04 21:55 278 2 gusting 6 11.7
2019-Dec-04 21:50 011 0 gusting 2 11.7
2019-Dec-04 21:46 011 11.7
2019-Dec-04 21:40 011 0 gusting 2 11.7
2019-Dec-04 21:35 011 0 gusting 3 11.7
2019-Dec-04 21:31 011 0 gusting 3 11.7
2019-Dec-04 21:25 011 0 gusting 4 11.7
2019-Dec-04 21:20 011 1 gusting 4 11.7
2019-Dec-04 21:16 011 0 gusting 3 11.7
2019-Dec-04 21:10 011 0 gusting 2 11.7
2019-Dec-04 21:05 011 11.7
2019-Dec-04 21:01 011 1 gusting 4 11.7